Location: Pulvis Stellarum Observatory
(41.6962°N, 71.4263°W)
Time: 04:46:10
(UTC-04:00)

Daily predictions for brighter satellites

Satellite Brightness Start Highest point End
(mag) Time Altitude Azimuth Time Altitude Azimuth Time Altitude Azimuth
Cosmos 2219 Rocket 4.4 02:42:09 10° N 02:46:29 22° NE 02:50:48 10° E
CZ-2D R/B 4.3 02:45:54 10° NNE 02:47:59 21° NE 02:47:59 21° NE
ATLAS 2AS CENTAUR R/B 3.5 03:17:04 49° NNW 03:17:04 49° NNW 03:23:52 10° NNE
Lacrosse 5 rocket 4.0 03:21:46 20° NE 03:21:46 20° NE 03:23:09 10° NE
Resurs 1-4 Rocket 3.6 03:15:02 10° NNE 03:18:00 33° NE 03:18:00 33° NE
Cosmos 2333 Rocket 3.8 03:18:01 10° N 03:23:05 31° NE 03:28:06 10° ESE
CZ-3A R/B 4.3 03:32:05 24° N 03:33:01 26° NNE 03:37:39 10° E
NOSS 3-2 (A) 4.4 03:37:44 10° NNW 03:45:05 60° NE 03:53:00 10° SE
SL-16 R/B 3.8 03:49:20 29° NNW 03:49:20 29° NNW 03:52:17 10° NNW
Cosmos 2237 Rocket 3.4 03:45:30 10° N 03:50:50 41° ENE 03:56:06 10° SE
ATLAS 5 CENTAUR R/B 3.2 03:54:57 10° NNW 04:00:43 49° NE 04:06:56 10° ESE
Cosmos 2219 3.9 04:05:16 41° NNW 04:05:16 41° NNW 04:09:27 10° NNE
Cosmos 1980 4.3 03:58:47 10° NNW 04:04:23 57° ENE 04:09:57 10° SE
Cosmos 1821 Rocket 4.2 03:59:47 10° NNW 04:05:02 57° NW 04:05:02 57° NW
Gbstr 26 Del rocket 4.2 04:05:44 53° WNW 04:07:48 83° SW 04:15:55 10° SE
SL-16 R/B 4.2 04:04:37 10° N 04:09:26 27° NE 04:14:13 10° ESE
Cosmos 1934 Rocket 3.8 04:03:54 10° N 04:10:11 74° W 04:10:20 74° WSW
RESURS DK-1 4.0 04:10:27 27° ESE 04:11:01 28° ESE 04:14:35 10° NE
Cosmos 1605 Rocket 4.0 04:04:58 10° N 04:11:09 80° E 04:17:22 10° S
NOSS 0 Rocket 3.9 04:07:30 10° NNW 04:13:46 83° ENE 04:20:01 10° SSE
CZ-4C R/B 3.9 04:17:35 28° S 04:17:35 28° S 04:21:18 10° S
Cosmos 2344 3.6 04:16:41 51° WSW 04:18:49 72° NW 04:27:40 10° NNE
ADEOS II 4.0 04:14:56 10° NE 04:19:25 28° E 04:23:52 10° SSE
Cosmos 1777 Rocket 3.9 04:21:55 73° WNW 04:21:55 73° WNW 04:27:05 10° NNE
NOSS 3-2 (C) 4.1 04:14:54 10° NNW 04:22:26 79° NE 04:30:31 10° SE
Cosmos 2227 Rocket 2.3 04:21:35 45° S 04:23:20 70° ESE 04:28:59 10° NNE
Cosmos 1743 3.6 04:20:44 10° N 04:23:35 44° NNE 04:23:35 44° NNE
MOS 1-B 4.3 04:20:46 10° N 04:26:26 59° WNW 04:26:47 57° W
ARIANE 5 R/B 4.1 04:22:43 10° N 04:25:08 22° NNW 04:25:08 22° NNW
Lacrosse 5 2.0 04:29:39 58° S 04:30:29 70° SE 04:35:32 10° NE
CZ-2D R/B 3.2 04:25:58 10° N 04:29:18 29° NW 04:29:18 29° NW
ADEOS Rocket 3.8 04:23:31 10° NNE 04:30:38 57° E 04:37:00 10° S
Cosmos 2219 Rocket 2.1 04:25:17 10° NNW 04:30:54 63° WSW 04:36:29 10° S
Cosmos 2297 Rocket 2.6 04:29:49 26° S 04:32:55 60° ESE 04:38:29 10° NNE
BREEZE M DEB (TANK) 2.8 04:33:50 51° N 04:33:50 51° N 04:39:55 10° ENE
PSLV R/B 4.0 04:32:39 10° N 04:36:14 61° NNW 04:36:14 61° NNW
Cosmos 1025 Rocket 3.1 04:36:45 39° S 04:38:17 73° E 04:42:37 10° NNE
Okean O Rocket 1.4 04:33:54 10° N 04:38:19 74° WNW 04:38:32 72° WSW
BREEZE-M DEB (TANK) 3.1 04:39:06 53° SSW 04:39:56 70° SSE 04:42:41 10° ENE
Cosmos 2112 Rocket 4.1 04:34:38 10° NNW 04:39:58 79° ENE 04:45:13 10° SSE
CZ-2C R/B 3.6 04:43:00 37° S 04:44:41 65° WSW 04:49:17 10° NNW
Cosmos 1680 Rocket 3.4 04:39:40 10° NNW 04:44:58 81° WSW 04:50:13 10° SSE
CZ-4B DEB 4.1 04:40:31 10° NNE 04:46:02 89° ESE 04:50:15 18° SSW
NOSS 3-4 (A) 3.4 04:43:36 39° SW 04:46:09 75° NW 04:52:44 10° NNE
NOSS 3-4 (C) 3.4 04:43:40 38° SW 04:46:15 76° NW 04:52:50 10° NNE
Cosmos 2100 Rocket 4.3 04:41:55 10° N 04:48:07 67° E 04:54:22 10° SSE
CZ-4B R/B 3.0 04:44:32 10° N 04:48:56 78° WNW 04:50:34 39° SSW
Cosmos 1606 Rocket 3.6 04:44:33 10° N 04:48:57 76° E 04:53:17 10° SSE
Cosmos 292 Rocket 4.4 04:44:27 10° NNW 04:49:16 58° ENE 04:54:03 10° SSE
MOZ.5/SAFIR/RUBIN 5/SL-8 4.3 04:51:08 40° WNW 04:51:08 40° WNW 04:54:51 10° NNW
Tiangong 1 1.4 04:53:12 59° ESE 04:53:12 59° ESE 04:55:51 10° E
PAYLOAD B 4.1 04:49:15 10° N 04:54:44 69° WNW 04:58:16 23° SSW
Delta 2 Rocket 4.0 04:56:54 32° S 04:56:58 32° S 05:00:12 10° ESE
Lacrosse 5 rocket 3.3 04:57:30 19° NW 04:58:28 20° NNW 05:01:47 10° NNE
IRS-1C Rocket 4.3 04:54:20 10° N 04:59:27 51° WNW 05:01:40 31° SW
Resurs 1-4 Rocket 3.7 04:56:03 10° NNW 04:59:05 19° NW 04:59:05 19° NW
Cosmos 1726 Rocket 3.5 04:56:00 10° N 05:00:26 85° E 05:04:47 10° S
Cosmos 2082 3.7 04:59:49 30° SW 05:02:34 62° WNW 05:08:09 10° NNE
Okean 1-7 Rocket 4.4 05:04:13 31° WNW 05:04:13 31° WNW 05:07:53 10° NNW
Okean 2 3.5 04:59:57 10° S 05:04:06 79° E 05:08:16 10° N
BREEZE-M DEB (TANK) 4.4 05:00:32 19° WNW 05:04:45 72° SW 05:25:01 10° SE
Meteor 1-31 Rocket 4.5 05:01:48 10° NNE 05:05:24 34° E 05:08:59 10° SSE
Cosmos 2333 Rocket 2.5 05:02:07 10° NW 05:07:25 40° WSW 05:12:39 10° S
Cosmos 1892 Rocket 3.5 05:06:14 10° S 05:10:42 81° W 05:15:13 10° N
Thor Agena Rocket 3.5 05:05:38 10° S 05:10:53 67° WSW 05:16:11 10° NNW
Aureole 2 Rocket 3.8 05:10:50 10° N 05:14:13 40° ENE 05:17:17 10° SE
Meteor 1-19 Rocket 4.4 05:10:46 16° SSW 05:15:04 50° WNW 05:20:31 10° N
Cosmos 220 Rocket 4.4 05:15:42 30° WSW 05:17:10 41° WNW 05:21:11 10° N
Cosmos 2150 Rocket 4.2 05:12:40 10° S 05:17:47 70° ESE 05:22:55 10° NNE
PSLV R/B 3.5 05:15:13 10° N 05:19:33 66° WNW 05:23:48 10° SSW
USA 129 3.0 05:19:09 10° SSE 05:21:03 38° ENE 05:22:50 10° N
Cosmos 1000 Rocket 4.5 05:15:48 10° S 05:22:08 81° W 05:28:30 10° N
Cosmos 2016 Rocket 4.1 05:18:55 10° N 05:25:19 86° E 05:31:36 10° S
Cosmos 2098 Rocket 3.2 05:21:42 10° N 05:25:26 71° E 05:30:11 10° SSE
CZ-4B R/B 3.8 05:25:02 10° N 05:29:55 36° WNW 05:34:21 12° SW
Cosmos 2173 Rocket 3.9 05:25:11 10° NNW 05:31:11 62° W 05:37:13 10° S
Meteor 2-4 Rocket 4.0 05:28:50 10° SSW 05:34:26 48° WNW 05:40:09 10° N
Cosmos 2237 Rocket 2.9 05:29:55 10° NW 05:34:41 29° WSW 05:39:25 10° SSW
Cosmos 1666 3.2 05:31:24 10° NNW 05:34:58 36° W 05:38:29 10° SSW
DELTA 2 R/B (1) 4.1 05:30:56 16° SW 05:35:15 53° SSE 05:40:41 10° E
Cosmos 2228 2.9 05:31:16 10° NNW 05:35:40 74° W 05:40:01 10° S
Meteor 1-23 Rocket 4.4 05:30:25 10° SSW 05:35:50 50° WNW 05:41:22 10° N
COS B Rocket 3.9 05:37:25 17° NW 05:37:25 17° NW 05:38:21 10° NNW
SeaSat 1 4.3 05:32:30 10° ESE 05:36:51 32° NE 05:41:13 10° N
Okean-O 2.8 05:35:21 10° N 05:39:40 51° WNW 05:43:57 10° SSW
Cosmos 1459 Rocket 4.2 05:34:35 10° NNW 05:40:44 52° W 05:46:48 10° SSW
Cosmos 2123 Rocket 4.1 05:35:39 10° S 05:41:49 81° E 05:48:01 10° N
ATLAS 5 CENTAUR R/B 3.0 05:39:56 10° NW 05:45:22 34° WSW 05:51:07 10° S
CZ-3A R/B 4.4 05:43:38 10° SW 05:45:35 11° SSW 05:47:04 10° S
Cosmos 2058 Rocket 3.6 05:44:29 10° NNW 05:48:29 36° W 05:52:28 10° SSW
OTV 4 2.4 05:47:38 12° SW 05:48:39 14° SSW 05:50:15 10° SSE
RESURS DK-1 3.5 05:46:26 14° WSW 05:49:02 25° NW 05:52:32 10° N
Cosmos 1898 Rocket 3.7 05:46:39 10° SW 05:51:52 54° WNW 05:57:04 10° N
EXPRESS MD2 3.8 05:49:30 10° WNW 05:52:55 85° NNE 05:59:54 10° ESE
SL-16 R/B 2.4 05:48:20 10° NW 05:53:45 47° WSW 05:59:08 10° S
MOS 1 Rocket 3.4 05:51:02 10° N 05:55:43 60° WNW 06:00:40 10° SSW
COBE Rocket 3.9 05:52:48 10° N 05:57:32 58° WNW 06:02:07 10° SSW
ADEOS II 2.6 05:54:22 10° N 05:59:11 37° WNW 06:03:58 10° SW
Cosmos 1346 Rocket 4.2 05:57:20 10° WSW 06:00:16 20° WNW 06:03:14 10° NNW
COSMO-SKYMED 1 2.6 05:58:20 10° SSE 06:02:40 88° E 06:07:02 10° NNW
NOAA 6 4.0 06:00:50 10° N 06:06:01 71° WNW 06:11:10 10° SSW
Cosmos 1937 Rocket 3.7 06:02:24 10° SW 06:07:31 54° WNW 06:12:42 10° N
Cosmos 2227 Rocket 3.6 06:03:55 10° W 06:07:57 20° NW 06:12:01 10° N
CZ-4B R/B 4.3 06:06:51 10° N 06:10:34 39° WNW 06:14:07 10° SW
NOSS 2-2 (D) 3.6 06:07:34 10° SSW 06:11:38 87° SE 06:16:24 10° NE
Lacrosse 5 3.1 06:09:31 10° W 06:13:51 28° NNW 06:18:12 10° NNE
CENTAUR R/B 3.2 06:07:29 10° NW 06:15:20 72° WSW 06:23:37 10° SSE
ADEOS Rocket 4.2 06:09:37 10° N 06:15:35 29° WNW 06:21:06 10° WSW
